Location: Prosper
(33.2362°N, 96.8011°W)
Time: 08:20:54
(UTC+00:00)

Cosmos 2279 Rocket - Pass Details

Date: 03 December 2021
Orbit: 964 x 978 km, 82.9° (Epoch: 26 January)

Event Time Altitude Azimuth Distance (km) Brightness Sun altitude
Rises 12:08:33 0° 351° (N) 3,656 6.7 -13.6°
Reaches altitude 10° 12:11:04 10° 349° (N) 2,706 6.0 -13.1°
Maximum altitude 12:17:13 72° 267° (W) 1,014 3.9 -11.9°
Drops below altitude 10° 12:23:21 10° 184° (S) 2,695 6.5 -10.7°
Sets 12:25:51 0° 182° (S) 3,640 7.2 -10.2°
